Wind_Speed
10 10 10 11 11 12 12 12 13 13 13 12 11 11 11 10 10 9 8 7 5 4 4 4 5 7 8 11 13 14 16 18 20 21 22 24 26 26 27 28 29 30 30
11 11 10 11 11 11 12 12 12 12 12 12 11 11 11 10 10 9 8 7 6 5 5 5 5 6 8 10 12 14 16 17 19 20 21 23 25 26 27 28 28 28 30
12 11 11 11 11 11 11 11 11 11 11 11 11 11 11 10 9 9 8 7 7 6 6 6 6 6 8 9 11 13 15 17 18 20 20 21 23 24 26 27 29 29 29
14 13 12 12 11 11 11 11 11 11 11 11 11 11 11 10 9 9 9 8 7 7 7 7 7 7 8 9 10 12 14 16 17 19 20 21 22 23 24 25 27 29 29
16 15 14 13 12 12 11 11 11 11 11 11 11 11 11 10 10 9 9 9 8 8 8 8 8 7 8 8 10 12 13 15 16 17 19 20 21 22 23 23 24 25 26
18 17 17 16 15 14 13 12 12 11 11 11 11 11 11 10 10 10 10 9 9 9 9 8 8 8 8 8 9 10 12 13 14 16 17 18 19 20 22 23 24 24 26
20 19 19 18 17 16 15 14 13 12 12 12 11 11 11 11 11 10 10 10 10 10 10 10 9 9 8 9 9 9 11 12 13 14 15 16 18 19 20 22 23 24 25
22 21 21 20 19 18 17 16 15 14 13 13 12 12 12 11 11 11 11 11 11 11 11 11 10 10 10 10 10 10 11 11 13 14 15 16 16 17 18 20 21 22 24
24 23 23 22 22 21 19 18 17 16 15 14 14 13 13 12 12 12 12 11 11 11 11 11 11 11 11 11 11 11 12 12 13 15 15 15 16 17 18 20 21 22 24
26 26 25 24 24 23 22 21 19 18 17 16 15 15 14 14 13 13 13 12 12 12 12 12 11 11 12 11 12 12 12 13 14 15 16 17 17 18 19 20 21 22 23
29 28 28 27 26 25 24 23 22 21 20 19 18 17 16 15 15 14 14 14 13 13 12 12 12 12 12 12 12 13 13 14 15 15 16 17 18 19 20 21 22 23 24
31 30 30 29 29 28 26 26 25 23 22 21 20 19 18 17 17 16 15 15 15 14 14 13 13 12 12 12 13 13 14 15 16 16 17 18 19 20 21 22 23 24 24
33 33 32 32 31 30 29 28 27 26 24 23 22 21 20 19 18 18 17 17 16 16 15 15 14 14 14 14 14 15 15 16 16 17 18 19 20 21 22 23 24 24 25
35 35 35 34 33 32 31 30 29 28 26 25 24 23 22 21 20 20 19 19 18 17 17 16 16 15 15 15 15 16 16 17 17 18 19 20 21 22 23 24 24 26 27
38 37 37 36 36 34 33 32 31 30 29 27 26 25 24 23 22 21 21 20 20 19 19 18 17 17 17 17 17 17 17 18 18 19 20 21 22 23 24 25 26 27 28
40 39 39 39 38 37 35 34 33 32 31 30 28 27 26 25 24 23 23 22 21 21 20 20 19 19 19 19 19 19 19 20 20 21 22 23 24 25 26 27 28 29 30
42 42 41 41 40 39 38 36 35 34 33 32 31 29 28 28 27 26 25 24 24 23 22 22 21 21 21 21 21 21 21 22 23 23 24 25 25 26 27 28 29 30 31
44 44 43 43 42 41 40 38 37 36 35 34 33 32 30 29 28 28 27 26 25 25 24 24 23 23 23 23 23 23 23 24 24 25 25 26 27 28 29 30 31 32 33
46 45 45 45 45 43 42 41 39 38 37 36 35 34 33 31 30 29 28 28 27 26 26 25 25 25 25 25 25 25 25 26 26 26 27 28 29 30 31 32 33 34 35
49 47 47 47 47 46 44 43 42 40 39 37 36 35 35 33 32 31 30 29 28 28 27 27 27 27 26 27 27 27 27 28 28 28 29 30 30 31 32 33 34 35 35
51 50 49 49 48 47 46 45 44 42 41 39 38 37 36 35 33 33 32 31 30 29 28 28 28 28 28 28 28 29 30 30 30 30 31 32 32 33 33 34 35 35 36
51 52 52 51 50 50 48 47 46 44 43 41 40 39 38 37 35 34 33 32 31 30 30 29 29 29 29 30 30 31 31 32 32 32 33 33 33 34 35 36 36 37 38
50 52 52 52 52 52 51 50 48 46 45 44 42 41 39 38 36 35 34 33 33 32 31 30 30 30 30 31 31 32 32 33 33 34 34 35 35 36 37 37 38 39 40
49 51 51 52 52 52 52 51 50 48 47 46 45 43 41 40 38 37 36 35 34 33 32 32 31 31 32 32 33 33 34 34 35 36 36 37 37 37 38 39 40 41 41
47 49 50 51 52 52 52 52 51 49 48 47 46 45 44 42 41 39 37 36 35 34 34 33 33 33 33 33 33 34 35 36 36 37 37 37 38 38 39 40 41 42 42
45 46 48 49 50 51 52 52 51 50 48 48 47 46 45 44 43 42 40 38 37 36 35 34 33 33 34 34 35 35 36 36 36 37 38 38 39 40 40 41 42 42 43
Wind_Direction
300 307 315 322 330 338 345 349 352 354 356 359 1 3 2 2 2 1 1 359 351 338 314 290 272 257 243 240 235 231 230 229 229 229 230 231 232 233 234 236 237 237 237
292 298 306 313 322 331 337 343 346 348 351 356 358 0 1 1 360 358 355 353 349 341 328 313 298 275 257 251 244 237 234 231 230 232 234 235 235 235 235 236 237 239 241
283 288 296 302 310 320 328 334 338 342 345 348 350 353 355 355 355 353 350 345 342 335 328 319 306 286 268 259 251 244 240 237 235 235 238 238 238 238 237 239 240 242 244
277 280 285 290 298 307 315 323 329 334 338 340 342 345 347 348 349 348 346 341 337 332 328 319 308 292 277 265 257 250 244 241 239 239 240 241 241 241 241 243 243 244 245
273 275 277 281 286 293 302 310 318 324 329 333 335 337 339 341 342 342 340 337 332 328 326 321 315 303 287 272 267 257 249 245 244 242 242 243 244 243 243 244 245 246 248
270 271 272 274 278 284 290 296 303 311 317 322 326 330 333 333 333 333 333 330 328 323 320 316 312 306 292 281 274 263 253 250 247 245 244 246 247 246 245 246 248 248 250
267 268 270 271 274 277 281 285 291 298 305 311 315 319 323 327 328 328 326 324 324 321 318 314 310 304 293 284 277 268 262 258 253 249 246 247 248 248 247 248 249 250 251
264 265 267 268 270 271 274 277 281 287 293 300 304 308 312 317 320 323 324 322 321 320 317 314 310 303 294 289 285 278 271 265 258 251 248 250 250 250 251 252 252 252 252
262 263 264 265 267 268 269 271 274 278 284 289 294 298 302 306 309 313 316 316 317 316 315 312 307 303 296 289 286 281 276 270 265 256 255 255 255 256 257 256 255 256 256
261 260 261 263 265 266 266 267 270 273 276 280 284 288 292 296 299 302 307 310 312 313 312 311 307 301 298 291 286 281 276 272 267 264 262 260 259 259 260 261 261 261 261
261 260 260 261 262 263 264 265 266 269 271 273 277 281 284 287 291 294 297 301 303 305 306 306 304 302 299 294 288 282 277 273 271 269 266 265 263 264 263 263 264 264 264
260 259 259 259 260 260 261 262 263 265 267 269 272 275 278 281 283 286 289 293 296 297 299 301 302 301 299 296 290 285 281 276 273 271 269 268 268 267 267 267 267 268 267
260 258 257 257 257 258 259 260 260 262 264 266 268 271 273 276 278 280 283 286 289 291 293 295 296 297 297 297 293 289 286 281 277 274 272 272 271 271 271 271 271 272 271
259 257 256 255 255 256 256 258 259 260 261 263 264 266 269 271 273 276 279 281 283 285 287 289 291 293 295 296 295 292 289 286 281 277 276 276 275 274 274 274 275 275 274
258 256 255 254 254 254 255 256 256 257 258 260 262 264 265 267 269 271 274 277 279 281 282 283 286 288 291 294 295 294 292 289 286 282 280 279 278 277 277 277 277 278 278
258 256 254 253 252 252 253 253 254 255 255 257 258 260 262 264 266 268 270 273 275 278 279 281 282 284 286 289 292 293 293 290 288 285 284 283 282 281 280 280 279 280 279
256 255 253 252 251 251 250 251 251 252 253 254 255 257 259 261 263 265 267 270 272 274 276 278 280 281 283 286 289 291 292 291 289 287 285 284 284 284 283 284 284 283 282
255 254 252 251 250 249 248 248 249 250 251 252 253 255 257 259 261 263 265 268 270 272 274 276 278 279 281 283 286 288 290 291 290 289 287 286 285 285 285 285 286 287 286
254 252 250 249 248 247 246 246 246 248 249 250 251 253 255 257 259 261 263 266 268 271 273 275 277 279 280 282 284 286 288 289 290 289 289 289 288 287 286 286 287 287 287
252 250 248 247 246 246 245 245 245 246 247 248 249 251 253 255 258 260 262 264 267 269 272 274 277 279 280 282 284 286 287 288 289 289 290 290 290 289 288 288 288 289 289
249 248 246 245 244 243 243 243 243 244 245 246 247 249 251 253 255 257 260 262 265 268 270 274 276 278 280 282 284 286 287 288 289 289 290 291 291 290 290 289 290 290 290
249 247 245 244 242 241 241 241 242 242 243 244 245 247 249 252 254 256 259 261 264 267 270 273 276 278 280 282 285 286 288 288 289 290 291 291 291 291 290 291 291 291 292
249 247 245 244 242 240 238 238 239 240 240 242 243 245 248 251 253 255 257 260 263 266 269 272 275 278 280 283 285 287 288 289 290 290 291 292 292 291 291 291 292 293 293
249 246 245 244 242 240 238 236 236 238 240 240 242 244 246 249 251 253 256 258 261 264 268 271 275 279 281 283 285 287 288 290 290 291 292 293 292 292 292 292 293 294 294
250 246 244 243 241 239 237 236 236 236 238 239 240 243 245 248 250 252 254 257 260 264 267 270 274 278 280 282 285 287 289 291 291 291 292 293 293 292 293 294 294 295 295
250 246 244 241 239 238 236 235 235 235 236 238 239 241 244 246 249 251 253 256 260 263 266 270 274 277 280 283 285 288 290 291 291 292 292 293 293 293 294 295 295 296 296
Height
5816 5815 5813 5811 5808 5806 5803 5800 5797 5795 5792 5789 5786 5784 5782 5780 5778 5776 5774 5773 5772 5771 5771 5771 5771 5771 5771 5772 5774 5776 5778 5780 5782 5784 5787 5789 5792 5795 5798 5800 5803 5806 5809
5813 5812 5811 5809 5807 5804 5802 5799 5797 5794 5792 5789 5786 5784 5782 5780 5778 5776 5774 5773 5772 5771 5770 5770 5769 5769 5769 5769 5770 5772 5774 5776 5778 5780 5782 5784 5786 5789 5791 5794 5797 5799 5802
5811 5809 5808 5807 5805 5803 5800 5798 5796 5793 5791 5788 5786 5784 5782 5779 5777 5776 5774 5773 5771 5770 5769 5768 5767 5767 5766 5767 5767 5768 5769 5771 5773 5775 5777 5779 5781 5783 5785 5788 5790 5793 5795
5807 5806 5805 5804 5802 5801 5799 5796 5794 5792 5789 5787 5785 5783 5781 5779 5777 5775 5773 5772 5770 5769 5768 5767 5765 5764 5764 5764 5764 5764 5765 5767 5768 5770 5772 5774 5775 5777 5779 5781 5784 5786 5788
5803 5802 5801 5800 5799 5798 5796 5794 5792 5790 5788 5786 5784 5782 5780 5778 5776 5774 5772 5770 5769 5767 5766 5765 5763 5762 5761 5761 5761 5761 5761 5762 5764 5765 5767 5768 5770 5772 5773 5775 5777 5779 5780
5799 5798 5797 5796 5795 5794 5793 5791 5789 5788 5786 5784 5782 5780 5778 5776 5774 5772 5770 5769 5767 5765 5764 5762 5761 5760 5759 5758 5758 5757 5758 5758 5759 5760 5761 5763 5764 5765 5767 5769 5770 5771 5773
5793 5793 5792 5791 5791 5790 5789 5787 5786 5784 5783 5781 5779 5777 5776 5774 5772 5770 5768 5767 5765 5763 5762 5760 5759 5757 5756 5756 5755 5754 5754 5754 5754 5755 5756 5757 5758 5760 5761 5762 5763 5764 5765
5787 5787 5786 5786 5785 5785 5784 5783 5782 5781 5779 5778 5776 5775 5773 5771 5770 5768 5766 5764 5763 5761 5759 5758 5756 5755 5753 5753 5752 5751 5750 5750 5750 5751 5752 5752 5753 5754 5755 5756 5756 5757 5758
5780 5780 5780 5780 5779 5779 5778 5778 5777 5776 5775 5774 5772 5771 5770 5768 5767 5765 5763 5762 5760 5758 5757 5755 5753 5752 5751 5749 5748 5748 5747 5747 5747 5747 5748 5748 5748 5749 5749 5750 5751 5751 5751
5773 5773 5773 5773 5773 5772 5772 5771 5771 5770 5770 5769 5768 5767 5766 5764 5763 5762 5760 5759 5757 5755 5754 5752 5750 5749 5747 5746 5745 5744 5744 5743 5743 5743 5743 5743 5743 5744 5744 5744 5744 5745 5744
5764 5764 5765 5765 5765 5765 5765 5765 5764 5764 5764 5763 5762 5762 5761 5760 5759 5758 5756 5755 5753 5752 5750 5748 5747 5745 5744 5742 5741 5740 5739 5739 5738 5738 5738 5738 5738 5738 5738 5738 5738 5738 5738
5755 5755 5756 5756 5756 5757 5757 5757 5757 5757 5757 5757 5756 5756 5755 5754 5754 5753 5752 5750 5749 5748 5746 5745 5743 5741 5740 5738 5737 5736 5735 5734 5734 5733 5733 5733 5732 5732 5732 5732 5731 5731 5731
5744 5745 5746 5746 5747 5747 5748 5748 5749 5749 5749 5749 5749 5749 5748 5748 5748 5747 5746 5745 5744 5743 5742 5740 5739 5737 5736 5734 5733 5731 5730 5729 5728 5728 5727 5727 5726 5726 5725 5725 5724 5724 5723
5733 5734 5735 5736 5737 5737 5738 5739 5740 5740 5741 5741 5742 5742 5741 5741 5741 5741 5740 5739 5738 5738 5736 5735 5734 5733 5731 5730 5728 5727 5725 5724 5723 5722 5721 5721 5720 5719 5718 5718 5717 5716 5715
5720 5721 5723 5724 5725 5727 5728 5729 5730 5731 5732 5733 5733 5733 5734 5734 5734 5733 5733 5733 5732 5731 5730 5729 5728 5727 5726 5724 5723 5721 5720 5719 5717 5716 5715 5714 5713 5712 5711 5710 5709 5708 5707
5706 5708 5710 5712 5713 5715 5716 5718 5719 5721 5722 5723 5724 5725 5725 5725 5725 5726 5726 5725 5725 5724 5724 5723 5722 5721 5720 5719 5717 5716 5714 5712 5711 5710 5708 5707 5706 5705 5703 5702 5701 5699 5698
5692 5694 5696 5698 5700 5702 5704 5706 5708 5710 5711 5712 5714 5715 5716 5716 5717 5717 5717 5717 5717 5717 5717 5716 5715 5714 5713 5712 5711 5709 5707 5706 5704 5703 5701 5700 5698 5697 5695 5693 5692 5690 5689
5677 5679 5681 5684 5686 5689 5692 5694 5696 5698 5700 5701 5703 5704 5706 5707 5707 5708 5708 5709 5709 5709 5709 5708 5707 5706 5705 5704 5703 5702 5700 5698 5697 5695 5693 5692 5690 5688 5686 5685 5683 5681 5679
5661 5664 5666 5669 5672 5675 5678 5681 5683 5686 5688 5690 5692 5693 5695 5696 5697 5698 5699 5700 5700 5700 5700 5699 5699 5698 5697 5696 5695 5694 5692 5691 5689 5687 5685 5683 5681 5679 5677 5675 5673 5670 5668
5645 5647 5650 5653 5656 5660 5664 5667 5670 5673 5675 5678 5680 5682 5684 5685 5687 5688 5689 5690 5690 5690 5690 5690 5690 5689 5688 5687 5686 5685 5683 5682 5680 5678 5676 5674 5671 5669 5667 5665 5662 5660 5657
5627 5630 5633 5637 5640 5645 5649 5653 5656 5660 5662 5665 5668 5670 5672 5674 5676 5677 5678 5679 5680 5680 5680 5680 5680 5679 5679 5678 5677 5675 5674 5672 5670 5668 5666 5664 5661 5659 5656 5654 5651 5648 5645
5609 5612 5616 5620 5624 5628 5633 5638 5642 5646 5649 5652 5655 5657 5660 5662 5664 5666 5667 5668 5669 5670 5670 5670 5670 5669 5669 5668 5667 5665 5664 5662 5660 5658 5656 5653 5651 5648 5645 5643 5640 5637 5633
5591 5594 5598 5602 5607 5612 5616 5621 5627 5631 5635 5638 5642 5644 5647 5650 5652 5654 5656 5657 5658 5659 5659 5659 5659 5659 5658 5657 5656 5655 5653 5651 5649 5647 5645 5642 5640 5637 5634 5631 5628 5625 5621
5572 5576 5580 5585 5589 5594 5600 5605 5611 5616 5620 5624 5628 5632 5635 5638 5640 5642 5644 5645 5646 5647 5648 5648 5648 5648 5647 5646 5645 5644 5642 5640 5638 5636 5633 5631 5628 5625 5622 5619 5615 5612 5608
5554 5558 5563 5567 5572 5578 5583 5589 5595 5600 5605 5610 5614 5618 5621 5624 5627 5629 5632 5633 5635 5636 5636 5637 5637 5637 5636 5635 5634 5632 5631 5629 5626 5624 5622 5619 5616 5613 5610 5606 5603 5599 5595
5537 5541 5545 5550 5556 5561 5567 5573 5579 5585 5590 5595 5600 5604 5608 5611 5614 5617 5619 5621 5623 5624 5625 5625 5625 5625 5625 5624 5622 5621 5619 5617 5615 5612 5609 5607 5604 5601 5597 5594 5590 5586 5582